RH
95 97 98 99 99 97 91 85 90 99 97 94 94 91 84 79 79 83 86 82 77 74 71 69 70 74 75 71 67 67 71 76 81 85 87 87 87 87 86 85 85 86 85 85 86 86 86 86 84 81 79 81 82 83 84 84 84 85 89 91 87 86 87 90 91 84 78 77 84 97 91 76 71 72 76 82 77 71 75 84 90 93 92 92 95
95 97 99 99 100 97 88 86 95 100 98 94 92 90 84 78 79 83 82 77 70 66 65 64 64 69 70 67 65 66 67 70 76 80 80 75 73 75 76 78 79 81 80 80 82 81 79 80 79 75 75 76 78 78 79 81 82 83 86 88 87 86 86 89 93 87 81 81 84 95 98 86 77 77 80 83 81 78 80 83 85 92 95 95 95
98 97 98 99 100 99 92 89 95 98 99 99 96 90 84 81 81 79 75 74 71 65 62 63 65 68 67 64 66 68 65 64 67 70 72 71 69 66 62 65 70 72 73 72 73 74 73 73 72 72 72 71 73 74 74 77 79 80 83 82 80 82 84 87 89 85 83 82 82 91 98 97 93 87 84 88 88 84 88 91 88 91 95 96 95
99 96 96 99 99 100 97 93 96 98 99 100 98 94 87 82 79 77 78 77 72 66 61 61 65 67 64 62 64 66 62 59 59 61 64 67 68 66 61 61 69 72 71 68 69 70 70 70 70 71 70 69 72 71 71 74 77 79 79 75 75 79 83 89 89 85 83 82 85 93 93 92 98 96 92 96 95 89 90 94 91 92 95 94 95
99 96 95 97 97 99 98 96 98 99 99 99 100 98 91 83 77 77 79 77 70 65 62 64 66 64 60 60 60 59 57 57 60 61 62 62 63 63 62 63 68 68 63 63 67 68 68 66 65 67 68 66 66 65 66 70 73 76 76 74 75 76 80 86 89 88 85 79 81 89 89 90 98 98 95 96 97 96 95 93 90 93 96 92 91
97 93 91 92 96 98 97 98 100 100 98 98 100 99 91 86 85 83 80 78 72 64 64 66 64 60 57 56 54 53 56 58 60 62 61 60 58 54 54 59 64 63 59 59 63 65 65 63 60 62 65 65 63 63 63 66 70 73 75 74 74 75 76 80 85 88 85 79 79 84 82 84 91 92 95 97 95 96 97 96 94 93 94 91 88
97 91 88 90 95 98 99 99 99 99 98 96 99 100 92 91 93 87 80 79 71 63 67 67 60 58 57 53 50 51 54 55 54 56 58 59 58 54 54 57 59 60 61 62 62 62 63 62 59 59 61 61 62 65 67 67 70 73 74 74 73 74 73 74 81 82 79 79 80 79 75 75 79 83 92 97 96 96 94 95 97 97 96 92 88
98 93 89 91 95 98 99 98 96 96 98 97 98 99 96 96 92 82 78 75 66 65 70 66 60 60 56 50 49 50 51 51 51 55 59 59 57 56 56 55 53 51 55 60 62 61 58 55 57 59 62 62 61 64 68 69 70 71 73 74 71 70 69 69 75 75 73 76 78 77 76 75 73 73 80 87 93 98 96 91 91 94 96 93 88
92 91 90 91 93 97 97 95 94 93 97 98 97 99 99 99 94 84 75 69 65 70 72 66 61 58 51 50 52 51 50 52 55 58 59 57 56 56 55 53 50 48 49 53 57 58 54 51 55 60 62 61 60 62 63 65 68 68 68 71 70 68 67 66 69 71 70 70 72 74 77 77 75 74 75 79 87 95 98 94 89 88 92 91 86
87 87 87 86 88 96 96 94 93 92 94 95 96 99 99 100 98 85 71 65 69 72 71 66 59 53 51 55 55 51 51 55 57 57 58 58 56 55 52 49 48 49 49 51 54 55 53 52 54 57 55 53 56 57 56 59 64 65 64 66 67 66 66 64 63 62 62 64 67 69 72 75 77 79 78 77 82 88 92 93 89 86 89 90 87
86 87 86 84 85 92 95 94 93 93 93 93 96 99 99 101 95 79 67 68 72 71 68 65 60 57 57 57 54 51 53 55 54 55 58 60 57 53 51 49 50 52 52 51 52 52 52 53 54 53 52 52 55 56 58 61 63 63 64 65 65 62 59 57 52 46 47 53 58 59 63 66 69 74 76 76 80 85 90 91 86 81 83 87 85
84 88 89 87 88 92 93 94 94 94 95 95 97 98 99 100 89 75 71 72 71 70 68 66 64 63 61 57 54 52 52 53 53 56 58 58 56 54 52 50 50 51 52 50 50 51 52 54 54 52 52 53 53 54 58 60 59 59 61 61 62 59 52 47 42 39 39 41 43 44 47 53 60 68 72 71 73 77 81 86 82 75 76 81 81
81 88 91 89 91 94 92 93 96 97 96 97 98 99 100 98 88 79 77 73 68 69 69 65 63 63 60 57 54 52 52 53 54 56 55 53 55 56 53 50 48 48 49 48 48 51 52 53 53 52 51 50 51 53 56 57 57 58 58 58 58 55 48 42 39 39 39 38 39 38 39 45 57 67 69 66 68 71 73 80 78 68 68 75 77
80 87 89 89 90 93 92 93 96 98 97 98 99 100 99 95 90 84 81 77 71 72 73 65 62 61 59 55 51 50 52 53 56 56 53 53 55 54 52 49 48 48 49 49 47 47 48 50 53 53 50 48 49 53 54 53 53 52 52 53 54 50 44 41 39 39 38 38 39 38 39 43 51 62 65 63 64 65 67 73 71 62 60 64 65
88 90 89 88 88 90 92 93 95 97 97 98 99 99 96 93 90 83 80 81 77 75 73 64 59 59 60 57 51 50 52 52 55 55 53 55 54 51 51 49 48 50 52 51 46 45 46 48 49 50 48 45 45 47 46 45 46 47 48 49 49 47 44 42 42 41 39 39 39 39 40 40 42 49 55 59 59 58 60 62 60 60 58 52 50
93 94 91 89 88 89 91 92 93 95 96 95 96 97 94 89 88 83 78 78 77 73 67 60 58 61 63 59 51 50 52 53 54 54 53 54 51 49 49 48 49 52 52 49 47 46 46 46 46 47 47 44 44 45 44 45 45 46 48 48 47 47 47 45 43 42 39 37 35 35 38 39 38 38 40 47 52 51 52 51 49 52 52 48 48
88 89 89 91 92 90 90 90 90 93 94 93 92 93 91 84 84 86 80 75 76 71 63 58 60 64 64 57 52 51 53 53 53 53 52 50 49 49 48 48 50 52 50 48 49 48 47 48 48 48 47 45 44 44 44 43 42 43 46 47 48 47 46 45 43 42 40 37 34 32 34 36 36 34 33 35 37 37 38 43 45 43 40 45 54
89 89 90 94 96 94 92 91 91 92 91 90 92 93 90 85 86 88 83 78 78 73 65 62 63 66 64 56 52 51 52 53 53 52 50 47 48 48 47 49 50 51 50 48 50 52 51 49 47 47 47 47 47 46 45 45 45 47 48 48 48 45 43 44 44 44 45 45 42 37 35 34 33 33 33 32 31 32 32 36 40 37 32 37 49
96 95 95 96 96 96 94 92 94 93 87 86 93 94 90 89 93 93 87 84 82 76 73 71 70 68 63 56 54 51 50 53 53 50 46 46 49 48 47 49 51 52 51 50 53 55 52 48 48 50 49 47 48 47 47 49 50 49 46 46 46 44 42 44 43 41 43 45 44 40 37 34 32 31 31 32 31 32 31 33 37 36 32 31 34
96 95 96 95 95 96 93 93 96 95 89 85 88 94 93 92 93 92 92 93 87 80 78 79 77 70 62 60 59 55 51 52 51 48 46 48 49 48 48 50 51 53 52 51 54 55 54 55 55 53 50 48 49 47 47 49 49 47 46 47 46 45 46 46 44 39 38 39 40 40 39 35 33 31 31 32 32 33 33 33 37 36 33 33 30
93 94 95 93 94 94 92 94 96 93 91 86 87 95 97 93 91 90 94 96 91 84 81 82 80 71 65 67 66 60 57 54 51 48 49 53 51 49 50 50 51 55 55 54 54 55 57 59 59 55 53 54 53 52 53 53 50 48 50 50 46 43 44 45 44 42 41 39 36 35 37 38 37 34 34 35 33 34 34 33 36 37 33 32 31
87 89 91 91 94 94 93 94 93 91 91 90 94 99 92 87 92 94 94 96 92 87 85 84 81 75 70 72 70 66 63 58 54 50 51 56 56 51 51 52 54 56 57 56 55 56 58 59 59 58 57 58 57 55 57 56 53 51 53 55 51 46 47 48 44 43 45 44 40 37 38 40 40 38 39 39 36 34 33 32 36 38 35 33 32
77 81 85 87 90 91 90 87 86 88 91 92 96 95 85 86 95 94 89 87 83 85 90 86 83 83 80 78 75 72 69 66 62 56 54 57 57 55 53 52 56 58 57 58 56 56 58 58 58 59 59 60 59 58 59 58 56 57 59 61 58 53 54 56 52 48 48 49 49 48 46 45 44 44 45 44 40 39 36 34 36 39 41 41 38
67 71 76 82 84 83 80 75 74 77 82 86 92 93 90 93 96 92 88 87 82 88 95 86 79 82 81 79 79 75 71 67 61 55 57 60 58 58 56 53 55 57 56 56 56 56 58 56 57 59 59 60 60 61 63 62 62 64 64 64 64 62 61 63 62 57 55 56 57 56 56 54 52 52 54 49 43 44 44 42 43 44 47 49 46
65 61 67 76 80 77 72 70 70 70 71 75 80 87 90 91 93 93 94 95 90 91 92 83 76 80 79 75 74 75 70 59 49 47 52 57 57 58 57 53 54 56 55 55 56 56 58 57 58 59 59 60 62 64 66 68 68 68 67 65 64 65 66 67 66 64 62 62 62 62 62 60 58 58 60 56 49 48 47 45 47 48 48 50 51
76 64 63 68 70 69 69 71 72 71 70 70 72 77 79 81 87 89 89 90 88 86 86 83 77 73 70 68 70 75 70 55 49 54 56 53 51 55 57 53 52 54 55 56 56 55 57 59 58 58 58 58 60 64 67 70 69 68 68 67 64 63 66 68 68 66 64 62 65 69 67 64 63 63 64 62 58 54 51 48 48 47 48 50 51
87 74 68 70 69 67 66 69 72 72 72 72 74 76 76 77 81 82 81 81 84 87 87 85 77 61 58 71 80 80 71 59 58 64 65 57 50 49 52 53 54 55 53 55 56 54 56 59 58 56 55 55 59 63 64 68 71 69 68 69 65 62 66 68 67 65 62 61 66 70 70 69 68 66 66 65 63 61 59 57 55 51 51 51 51
89 83 80 79 78 76 72 72 74 73 71 73 76 79 78 78 79 79 78 79 83 89 89 89 84 67 60 76 88 83 77 77 77 71 68 69 60 50 49 53 56 57 55 56 58 58 59 59 57 55 55 56 58 59 61 67 71 69 67 69 66 62 64 66 67 68 65 64 67 69 70 73 73 71 69 68 67 66 64 63 62 58 56 55 55
89 88 88 87 88 88 83 79 79 77 75 75 75 77 77 77 78 77 78 82 87 89 90 94 93 83 79 87 89 83 80 85 84 76 74 79 73 60 55 55 56 57 56 57 59 61 61 59 56 56 57 58 58 56 58 65 68 66 66 67 64 62 63 64 68 74 73 70 70 69 71 75 76 74 73 71 70 69 66 65 65 62 61 61 62
83 78 75 76 79 80 76 75 76 75 75 75 73 74 74 74 76 76 76 82 90 92 92 94 93 87 87 92 90 86 84 82 81 79 76 75 72 66 61 58 58 58 59 60 61 61 61 60 59 60 60 59 58 57 59 64 68 69 68 67 65 64 63 67 73 77 76 74 73 73 76 80 82 80 77 75 75 74 72 70 67 64 64 67 69
76 68 63 62 63 64 64 63 63 62 63 67 67 67 70 72 74 77 78 80 86 91 92 95 96 92 91 93 90 87 87 84 81 81 76 69 69 72 69 63 61 61 61 62 63 63 62 61 61 61 62 61 59 59 62 67 71 73 72 68 66 64 63 68 74 73 74 78 79 78 77 78 80 81 77 75 75 72 70 69 68 67 68 70 72
73 66 64 63 60 60 60 58 56 55 53 56 55 53 60 70 73 73 76 78 80 86 90 94 97 95 94 94 91 89 91 87 80 80 78 73 74 79 77 70 66 65 63 63 65 66 65 64 61 60 62 62 60 60 63 67 71 74 72 66 65 65 63 65 68 68 71 78 80 79 77 75 79 78 72 69 68 62 58 55 54 58 65 70 73
72 68 68 69 66 63 62 60 58 56 53 52 52 47 49 62 72 73 71 70 72 77 84 91 93 93 92 90 87 90 96 93 85 83 84 80 77 77 77 75 74 72 67 64 66 66 67 66 63 61 61 60 60 65 69 72 74 73 69 65 66 65 60 61 66 67 71 76 78 80 83 83 80 75 71 72 69 62 59 54 48 53 63 70 73
74 72 72 75 74 70 68 64 59 56 54 54 54 51 46 49 63 74 75 73 73 72 75 80 83 85 86 82 80 84 89 91 89 87 87 87 84 80 79 78 79 79 74 71 72 70 69 68 65 62 61 60 64 72 74 73 72 71 68 64 63 61 59 62 67 70 75 77 76 81 86 81 73 68 71 78 76 70 68 61 55 56 60 61 62
78 77 78 79 79 78 76 72 65 58 55 55 55 55 52 47 50 59 65 70 76 79 82 84 84 85 84 78 75 78 80 85 89 89 86 86 85 81 79 80 82 81 77 74 74 71 67 66 68 67 66 67 73 75 72 69 68 67 61 56 56 59 62 64 65 67 70 69 69 78 82 76 69 67 69 73 74 77 77 70 63 61 60 59 58
85 85 85 83 81 81 77 73 69 62 58 59 56 52 53 53 50 50 51 52 56 61 67 72 75 80 85 86 87 88 83 82 85 85 82 82 83 81 79 80 80 79 75 73 73 71 69 71 76 75 72 73 73 68 63 62 63 59 50 47 52 57 58 59 60 62 62 62 64 71 75 74 72 69 65 63 64 69 76 76 71 66 64 64 64
84 84 83 78 75 76 73 68 67 65 62 61 57 50 50 54 55 53 50 47 45 45 47 49 51 55 61 67 76 84 85 84 86 86 82 80 81 83 83 81 78 76 76 76 76 73 73 77 79 74 69 67 64 57 52 50 47 42 38 43 52 57 56 56 59 62 63 64 66 69 71 70 68 64 61 59 57 58 62 67 69 69 68 67 67
78 78 75 69 65 67 65 61 61 61 58 57 57 52 51 55 57 55 51 47 45 43 42 44 45 45 44 45 50 58 65 70 74 79 80 78 75 75 78 79 76 74 76 77 76 73 71 73 72 65 60 57 51 44 38 31 25 26 34 47 58 61 59 56 58 62 59 56 62 69 68 63 59 55 51 47 46 46 47 52 61 70 72 70 71
72 72 68 63 59 57 51 47 49 51 46 44 48 50 51 55 56 54 52 50 45 40 37 39 43 45 44 42 41 42 45 49 53 58 64 68 67 65 67 70 69 66 65 69 73 72 68 66 63 58 55 53 44 33 24 19 20 30 43 52 57 60 60 56 56 58 52 45 51 58 60 61 57 46 36 32 33 37 45 52 61 70 73 72 74
56 57 55 52 48 45 42 40 42 45 40 37 41 45 47 49 49 47 48 48 44 38 35 36 39 42 43 42 41 40 40 41 43 44 47 52 54 54 57 63 65 62 58 61 67 71 69 65 61 57 54 50 37 24 19 17 22 36 48 51 51 56 60 56 53 54 52 44 43 46 50 52 44 30 25 28 31 40 54 60 61 69 75 76 76
38 38 39 40 36 34 37 38 39 41 40 39 41 43 42 43 44 45 45 44 43 41 39 39 38 36 37 37 36 37 38 39 40 41 43 45 46 47 48 51 53 55 57 58 60 65 69 68 64 59 54 47 32 21 20 19 20 28 36 40 45 52 56 54 51 51 50 41 37 42 46 41 31 25 27 30 32 40 52 56 56 60 64 65 67
33 30 32 35 34 33 36 38 39 40 41 41 42 42 41 42 44 45 44 42 42 41 41 41 40 37 35 34 31 32 35 37 38 39 41 42 42 44 45 43 41 43 46 47 49 53 60 65 65 59 54 49 37 26 23 20 18 20 24 31 42 49 51 54 55 53 50 44 39 42 41 34 29 31 33 32 34 39 48 54 55 54 53 51 50
37 34 35 37 36 36 38 39 40 41 41 42 42 43 43 44 46 46 45 44 43 43 42 43 42 41 41 39 37 35 35 35 36 36 38 38 39 41 44 45 43 42 42 42 43 44 50 59 64 58 52 51 47 41 37 31 23 20 20 26 40 47 45 49 55 54 51 49 46 42 38 35 37 39 38 39 42 46 53 58 57 56 55 49 39
41 40 40 40 40 40 42 43 43 44 45 45 46 46 46 47 48 48 47 48 48 47 47 47 46 45 45 44 43 42 39 38 36 34 33 32 33 36 38 41 44 45 45 44 42 41 44 53 61 58 52 53 53 49 47 43 36 28 20 20 33 43 41 42 50 53 51 52 50 43 40 42 46 47 48 50 53 56 60 60 59 59 56 44 36
43 44 43 42 42 43 44 45 46 47 48 48 47 48 48 49 50 49 49 50 49 49 49 49 49 49 49 48 47 46 45 44 42 40 37 34 32 32 32 35 41 46 47 47 47 46 43 46 54 57 56 57 58 53 47 46 45 39 27 20 27 37 39 42 49 51 49 51 50 45 45 51 52 53 55 57 58 60 61 62 61 58 48 41 42
44 45 43 42 43 44 45 47 48 49 50 50 49 48 48 49 49 47 47 48 49 49 50 49 49 48 47 47 48 47 47 46 44 43 41 38 36 34 33 33 37 42 45 48 51 52 49 48 51 54 53 55 57 57 53 52 50 43 33 27 29 35 37 41 50 53 50 51 51 48 50 53 53 55 57 58 60 63 62 60 56 48 42 45 51
42 42 42 42 43 44 46 47 47 48 48 47 47 47 47 48 49 48 47 46 46 46 47 46 47 48 47 47 47 47 47 46 44 43 42 40 37 35 34 34 35 38 42 46 48 49 50 50 52 55 57 57 60 65 64 58 51 46 40 35 36 41 42 43 50 56 55 52 53 53 54 55 56 58 59 60 62 62 57 52 47 45 47 52 52
40 41 42 42 43 45 47 46 46 46 47 47 49 50 50 51 52 53 52 50 49 47 46 45 45 46 47 48 48 48 49 50 49 48 47 45 43 40 38 35 33 33 36 39 43 47 50 51 55 62 65 66 71 76 74 66 58 51 44 37 38 49 53 48 50 59 60 57 56 56 58 60 61 60 61 62 60 54 50 48 47 48 53 54 52
39 41 43 43 45 46 47 48 49 50 51 52 53 55 55 56 57 57 57 57 57 55 53 51 49 48 50 52 53 53 55 56 57 56 53 50 48 47 45 40 37 35 35 36 41 49 53 52 55 61 65 66 69 71 71 70 66 61 54 43 38 48 56 52 50 57 61 59 59 60 60 61 61 60 61 61 56 50 48 49 49 49 50 50 52
42 46 47 48 50 50 51 54 56 55 56 58 58 58 59 59 59 60 60 61 61 61 60 58 57 57 59 60 59 58 57 57 59 61 60 56 54 54 55 53 50 48 46 43 44 50 54 52 49 51 56 60 61 60 59 60 59 62 64 52 37 42 56 59 58 61 63 61 60 61 61 61 60 60 62 60 54 51 50 51 53 53 50 47 49
50 52 53 54 55 56 56 58 59 60 61 61 61 61 62 62 62 62 63 64 64 63 62 61 61 63 63 62 61 60 59 59 58 59 61 63 64 66 66 64 61 59 57 53 52 54 58 57 53 49 47 49 51 53 54 53 54 60 64 52 38 41 50 53 55 61 65 66 66 64 63 62 59 60 61 57 53 53 53 52 54 55 51 46 46
Wind_Speed
15 19 23 26 28 28 28 28 24 24 28 30 30 30 31 33 31 30 28 26 25 24 22 22 23 22 22 21 20 21 21 21 20 17 18 18 16 15 14 12 11 11 11 11 10 8 7 7 6 5 4 4 5 4 3 3 3 4 3 3 3 3 5 5 5 5 6 8 12 20 22 14 9 9 9 9 8 8 7 7 8 8 9 11 13
13 15 20 26 28 29 29 27 23 28 31 32 32 30 31 32 31 31 29 27 26 25 24 24 23 22 23 23 21 20 20 21 21 20 20 18 15 15 14 13 12 13 13 11 9 8 8 8 7 7 5 5 6 5 5 5 4 4 3 3 4 4 4 5 5 4 4 7 9 14 18 13 10 9 10 11 8 7 6 6 6 7 8 10 11
14 13 16 22 25 27 29 27 25 29 31 30 31 31 33 33 31 31 29 28 27 26 26 25 22 21 22 23 23 21 20 21 21 21 20 18 15 14 15 16 16 15 14 12 10 10 10 9 9 8 6 6 6 6 6 6 5 5 3 2 3 4 4 4 3 3 5 8 9 7 7 6 5 5 8 11 8 7 8 7 5 6 8 9 9
15 12 12 17 21 23 26 27 25 27 29 30 32 33 33 34 33 31 29 28 28 28 26 24 20 20 22 23 24 24 22 20 18 18 18 18 16 14 14 16 17 16 14 12 11 10 9 9 9 8 7 5 5 4 4 4 4 4 4 2 3 5 5 4 4 5 6 6 4 3 4 4 2 1 4 10 9 7 8 7 6 6 8 9 9
15 13 11 12 16 20 24 26 26 28 30 31 33 33 33 34 34 32 30 29 30 29 25 21 20 23 27 27 27 27 24 21 20 18 18 17 16 14 13 14 16 16 13 12 11 11 10 9 9 9 8 7 6 5 7 7 7 6 5 4 3 4 6 6 5 5 5 4 4 4 3 3 2 4 4 7 8 8 8 8 8 7 8 9 7
15 15 15 14 16 20 23 25 25 26 27 29 30 31 32 33 32 31 30 30 30 27 24 25 27 31 34 32 30 28 25 24 23 22 20 17 15 14 14 16 18 17 13 12 12 12 10 8 9 11 10 9 7 6 8 9 9 9 8 6 4 5 8 9 8 6 6 5 6 4 3 6 9 8 4 3 5 8 9 10 11 9 10 10 9
12 13 14 13 16 18 19 21 22 22 24 25 26 28 30 31 30 31 31 31 30 28 26 29 32 33 33 31 29 28 26 24 22 22 20 18 17 16 15 16 17 17 15 14 12 11 9 7 9 11 12 11 9 10 10 9 10 10 9 9 8 7 9 11 10 8 8 7 8 6 7 12 16 11 5 3 2 5 7 10 10 9 10 11 11
10 11 11 11 14 17 17 19 21 22 23 23 23 25 28 29 30 31 33 33 31 28 28 30 30 29 29 29 28 26 25 24 24 23 20 19 18 16 14 14 14 14 14 14 12 10 9 9 9 12 13 13 11 12 12 11 11 10 10 12 12 11 11 12 11 9 8 9 9 7 7 10 13 13 13 11 5 2 4 6 7 8 10 11 11
10 11 10 9 13 17 20 22 21 21 21 21 21 23 24 26 27 30 33 33 30 28 28 27 26 27 28 28 27 25 25 26 25 24 20 19 18 16 14 14 14 14 12 13 13 10 10 14 14 15 15 13 11 11 11 11 12 11 12 13 14 14 13 13 12 10 10 11 10 8 7 10 12 13 14 13 8 5 3 2 5 8 9 11 11
9 10 10 10 14 18 21 23 21 19 19 19 20 21 22 22 24 28 31 31 29 29 29 27 26 28 28 28 28 29 27 26 25 23 20 19 19 19 18 18 17 16 14 14 13 12 12 16 17 17 15 13 13 14 13 13 13 12 12 12 12 12 11 11 11 11 10 9 9 10 10 11 10 8 10 14 11 7 5 5 7 8 8 9 10
10 9 8 11 14 17 20 21 20 19 18 18 20 23 23 22 24 27 29 29 29 29 29 28 27 26 27 29 31 31 28 27 25 23 21 21 21 21 20 19 18 18 18 17 15 13 13 14 16 17 15 14 15 14 14 14 14 12 12 12 12 12 12 12 13 15 14 11 10 10 10 9 9 9 12 15 12 8 7 5 8 11 11 11 12
11 9 9 9 10 13 17 19 19 19 18 18 20 23 23 24 26 28 28 28 29 29 28 28 26 24 27 30 31 30 28 28 26 24 23 22 22 21 20 19 18 17 18 18 16 15 15 15 15 17 16 15 15 14 13 14 14 13 12 12 12 13 15 16 17 18 18 18 16 14 13 10 11 14 15 17 18 18 14 8 9 12 10 12 16
10 9 8 7 6 9 14 17 19 19 19 18 20 21 21 22 24 27 28 29 30 28 27 27 26 25 28 29 28 28 29 28 26 24 22 21 21 22 20 19 19 18 17 17 16 16 16 16 16 17 16 15 15 16 15 15 14 14 13 12 12 13 15 17 18 17 16 17 17 17 17 14 13 14 14 17 22 22 17 11 10 11 10 12 17
8 8 8 6 6 8 12 15 16 18 18 17 17 17 18 19 21 23 25 26 27 25 24 24 23 25 27 27 27 28 28 27 26 23 21 22 23 22 20 20 20 19 19 18 17 16 16 16 17 16 16 16 16 17 16 15 15 15 15 14 14 15 17 18 18 17 15 15 15 16 18 18 16 15 15 18 21 20 18 13 10 10 12 14 14
8 6 4 5 8 9 11 12 13 14 14 12 12 12 14 16 19 21 22 20 21 21 20 19 21 22 22 24 26 26 25 25 24 23 21 22 22 20 20 20 20 19 19 18 17 17 17 17 17 17 17 17 17 17 17 16 17 17 16 16 16 16 18 18 17 17 15 14 15 15 17 19 19 17 15 16 18 19 16 14 11 9 8 9 10
10 8 4 6 9 10 12 13 13 13 11 9 10 11 13 17 18 19 19 19 19 20 20 19 20 19 18 21 24 23 22 23 23 22 20 20 20 20 20 21 20 20 19 18 17 17 18 19 19 18 17 16 16 16 17 17 17 17 16 16 17 16 17 18 18 17 15 14 14 14 15 17 17 16 15 13 14 14 11 10 13 12 7 5 5
10 11 9 6 7 9 12 14 15 18 13 9 12 15 18 21 21 18 18 20 20 19 19 20 20 17 16 20 21 21 22 22 22 22 20 19 19 20 21 21 20 20 19 18 19 19 19 19 19 18 18 17 17 17 17 17 17 17 17 17 16 16 17 18 18 17 17 16 16 14 14 14 14 14 15 14 13 12 11 8 10 16 16 9 4
8 8 7 5 6 8 9 9 14 21 20 16 14 15 19 21 19 18 20 20 20 19 18 18 16 14 16 18 19 20 21 21 21 20 20 20 20 21 21 21 20 19 19 20 20 19 18 18 18 18 18 18 18 17 17 17 17 17 17 16 16 17 18 18 17 16 16 15 15 15 15 14 13 14 15 14 13 13 13 13 10 15 21 16 10
6 6 5 4 7 8 8 7 10 15 19 20 14 11 18 20 15 15 18 19 19 18 16 15 11 11 16 17 17 18 20 20 20 20 21 20 21 21 21 21 20 19 19 20 19 18 17 18 18 17 17 18 17 16 17 17 17 17 16 15 15 16 17 17 15 14 14 14 15 15 14 14 13 14 15 14 13 13 12 14 15 14 20 20 19
6 6 5 4 7 10 9 7 7 9 10 15 15 12 15 19 15 15 16 16 17 18 16 14 11 12 17 16 13 16 20 21 20 21 21 20 20 21 21 20 20 19 19 19 18 16 16 16 16 16 17 18 16 15 16 16 16 15 15 15 14 12 12 12 13 13 12 13 15 15 13 12 11 11 12 11 10 11 12 15 16 15 19 20 21
7 6 6 5 8 10 9 8 9 10 8 9 13 12 11 14 14 14 15 14 16 19 18 15 12 14 17 15 13 15 19 22 22 22 20 18 19 20 19 19 18 18 18 18 17 15 15 14 14 14 16 17 15 14 13 13 14 13 11 12 11 11 12 11 11 11 11 11 12 12 11 10 9 10 11 10 9 11 14 17 17 16 18 17 16
7 8 7 6 8 10 10 11 12 13 11 7 8 11 11 12 11 8 11 13 15 18 17 14 14 15 15 14 13 14 17 19 20 20 18 16 17 18 18 18 18 17 17 16 16 15 14 13 13 13 13 13 13 13 11 11 12 11 9 8 9 11 12 10 9 9 9 9 9 9 9 9 9 11 11 10 10 13 15 16 17 17 17 15 13
6 8 8 8 11 12 12 14 15 15 15 13 14 17 17 17 15 11 14 19 20 17 12 10 11 12 12 12 13 13 15 16 16 17 16 16 17 17 17 17 17 17 16 15 15 14 13 13 12 12 11 10 11 11 9 9 10 10 8 9 11 11 9 8 8 9 9 8 8 9 8 8 9 10 10 10 11 13 13 14 16 17 15 12 10
7 7 6 8 11 11 10 12 14 15 16 16 17 19 19 21 22 20 19 21 19 13 10 11 12 11 9 10 10 11 14 14 12 13 13 13 16 16 15 16 16 16 16 15 14 14 13 12 11 11 10 10 11 10 9 10 10 10 9 8 10 10 8 7 8 10 10 9 9 9 8 7 8 7 8 9 9 12 13 14 14 13 12 12 11
7 9 9 9 9 7 8 12 13 13 13 14 15 16 18 20 21 22 20 18 15 12 13 16 15 12 11 10 9 10 13 13 10 12 13 12 14 15 14 15 16 15 15 13 13 13 12 11 11 12 12 13 13 13 12 12 11 10 10 9 8 8 7 5 5 7 9 9 9 8 7 7 7 6 7 7 7 9 10 12 12 11 10 11 11
7 7 9 8 7 7 9 12 13 12 12 12 12 12 14 16 17 19 19 19 18 17 16 16 15 14 15 14 15 14 14 16 15 16 17 17 17 16 15 16 15 14 14 11 11 12 11 11 11 12 13 12 13 14 13 11 11 10 10 9 7 7 6 5 4 5 6 6 6 7 7 6 6 6 6 5 4 5 7 8 9 8 8 9 10
9 7 8 7 6 7 10 13 15 13 12 11 11 12 13 15 16 16 15 17 18 17 17 17 19 22 21 17 15 15 16 20 20 18 17 16 18 18 16 16 14 13 13 12 13 14 14 13 12 11 11 10 11 13 13 11 11 10 10 9 7 7 7 7 7 7 7 7 7 8 6 5 5 5 5 4 3 4 6 7 8 7 6 7 9
9 10 11 11 10 9 8 12 15 14 13 12 11 11 12 13 13 13 13 16 18 17 17 17 17 21 22 17 13 14 17 19 18 15 13 12 15 18 17 16 15 15 15 14 15 16 15 15 13 12 10 9 10 13 13 11 10 9 9 8 7 7 8 8 8 9 8 8 8 9 7 5 5 4 4 4 4 5 5 6 6 6 4 4 5
9 11 12 12 11 9 9 10 11 12 13 12 11 12 12 11 10 9 10 13 15 14 16 18 17 17 19 16 13 13 17 17 14 13 13 9 9 14 16 16 16 17 16 15 15 14 14 14 13 11 10 9 10 11 13 13 11 9 9 8 6 6 7 9 9 9 9 8 8 9 7 5 5 4 4 5 6 6 5 4 4 3 2 2 2
10 11 11 11 10 10 13 13 8 7 9 9 10 11 11 10 9 7 7 9 11 11 14 17 16 13 12 13 14 14 16 19 18 16 16 14 12 14 16 16 15 16 17 16 15 13 12 12 11 10 9 9 9 9 10 11 11 9 8 6 5 6 7 8 9 9 9 9 8 7 7 6 5 5 5 6 6 6 5 4 3 2 2 2 1
12 12 11 11 12 14 18 19 16 14 11 7 6 8 10 12 11 9 8 10 11 13 14 15 13 9 8 9 11 10 11 16 18 16 17 19 17 12 12 14 13 13 15 15 14 13 11 10 9 9 9 10 9 8 8 10 10 9 7 5 5 5 5 6 8 8 9 9 8 7 7 6 5 5 5 6 5 4 3 3 3 3 4 5 4
12 12 12 12 13 14 18 20 22 24 24 19 15 13 10 14 15 13 12 13 12 14 15 14 12 10 9 9 11 12 11 12 14 15 16 18 16 10 8 11 11 11 13 13 12 11 10 9 9 10 11 11 10 9 9 10 10 8 7 5 6 6 6 7 8 9 9 9 9 9 8 7 7 7 7 7 6 5 3 2 1 3 5 5 6
11 12 12 12 12 15 19 21 22 24 26 26 26 25 21 15 14 13 13 14 13 14 15 14 12 12 12 13 13 14 13 11 10 12 15 16 17 16 13 11 11 11 12 13 12 11 11 11 11 12 12 11 10 9 9 10 10 9 8 7 7 8 8 8 10 11 10 9 10 11 11 10 9 8 7 7 7 6 5 4 2 2 2 2 2
10 10 11 12 13 17 20 23 24 25 27 32 33 30 30 26 16 12 13 14 13 13 14 14 13 12 10 9 9 8 8 9 9 12 15 17 18 18 16 13 12 13 13 13 13 12 12 11 12 12 12 11 10 9 9 10 11 11 11 10 9 8 8 7 8 9 9 9 10 12 13 12 10 9 9 9 7 6 6 5 4 4 4 4 3
8 8 9 11 14 17 20 23 25 26 29 35 36 34 34 34 29 23 19 17 15 13 12 12 12 11 11 11 11 8 7 8 10 11 13 13 13 14 13 12 13 14 13 13 13 12 12 12 13 13 13 11 10 10 11 12 13 14 13 11 10 10 10 10 10 11 11 11 12 14 15 12 11 10 10 9 7 6 4 2 2 3 4 4 4
7 8 9 12 15 17 20 23 25 28 31 31 32 34 34 33 32 32 29 26 24 20 15 13 10 8 10 15 19 19 16 15 14 13 11 11 12 11 11 11 12 13 12 11 13 13 13 15 15 13 12 12 13 14 14 14 15 14 13 12 12 12 14 14 14 13 13 13 14 16 16 13 11 10 9 7 6 6 5 3 2 2 2 2 2
11 12 12 15 18 19 21 23 26 29 30 29 29 32 33 31 31 31 31 31 32 30 26 23 21 18 13 9 12 18 20 20 19 18 16 14 14 14 13 12 12 13 12 11 12 13 14 15 15 13 14 16 17 17 15 15 15 14 14 14 13 14 16 14 12 12 11 12 13 14 14 12 10 9 7 6 5 5 3 2 2 4 4 2 2
14 15 15 17 20 21 21 22 24 25 26 26 27 29 31 30 29 29 30 31 31 31 30 30 29 27 25 22 17 11 8 9 12 15 15 15 15 15 15 14 13 13 13 13 13 13 14 14 14 13 15 16 16 15 14 14 14 15 17 15 12 14 18 17 13 12 11 10 11 11 9 9 8 7 4 3 3 4 4 1 2 6 7 4 4
13 13 14 15 17 17 17 19 20 20 20 21 22 25 27 27 26 27 28 28 28 27 26 26 26 25 24 24 23 21 18 14 9 3 5 9 11 11 12 13 13 13 13 13 14 14 14 14 13 12 13 14 14 14 14 14 15 16 17 13 8 12 19 18 15 14 13 12 12 11 8 7 6 4 2 1 1 2 3 1 3 7 10 6 4
9 9 9 11 13 15 15 17 18 17 17 17 18 19 22 23 22 24 25 25 24 23 22 21 21 21 20 21 21 21 20 19 16 14 9 3 3 7 10 12 12 12 13 14 15 17 17 18 16 14 13 14 15 15 15 15 15 16 15 11 8 13 20 20 17 16 16 14 14 13 10 8 6 3 2 2 2 3 3 4 5 8 10 7 4
15 15 14 14 16 17 18 18 17 17 17 17 16 18 20 20 20 21 21 20 20 19 19 19 18 18 19 19 19 19 19 18 18 16 14 10 7 2 5 9 9 10 11 13 16 19 20 21 21 19 16 15 16 16 15 15 15 15 14 11 9 12 19 22 20 18 18 17 16 15 13 10 8 6 4 3 3 3 3 3 4 5 6 5 4
18 19 19 18 17 17 18 19 17 17 17 16 16 17 18 18 19 20 18 17 17 17 18 17 17 17 17 17 17 16 16 17 17 17 16 14 12 9 6 3 5 7 7 7 10 15 19 23 26 25 21 18 17 16 15 15 16 15 13 11 9 10 16 23 23 21 21 19 18 17 16 13 10 7 5 3 3 3 3 2 1 1 1 1 1
17 17 17 17 16 15 16 18 17 16 16 15 15 15 15 15 17 17 15 15 15 15 15 14 14 14 14 14 14 14 14 15 16 16 17 16 15 14 12 9 8 9 10 9 5 6 12 20 27 27 25 22 20 19 17 15 15 15 14 12 10 8 12 19 23 24 23 21 20 19 17 15 11 8 6 5 5 4 4 3 1 2 3 3 3
15 14 13 13 13 13 14 15 15 14 14 13 14 13 13 14 15 14 13 14 14 13 14 13 13 14 14 14 14 14 14 15 16 16 17 17 17 17 15 14 13 11 13 15 13 8 8 15 22 25 25 23 21 19 18 16 15 15 15 15 13 9 8 12 18 22 22 22 21 20 18 15 12 11 9 7 6 5 5 3 2 2 3 2 0
11 11 10 10 10 11 12 12 12 12 11 11 12 12 12 13 14 13 13 14 14 14 14 14 15 15 16 16 16 15 15 16 17 17 17 18 18 18 18 18 17 14 12 13 15 15 11 15 21 23 22 23 22 21 20 19 17 17 17 16 14 12 9 9 14 19 20 21 22 20 17 15 13 11 9 8 7 6 5 4 3 3 2 2 4
7 8 8 8 7 9 10 10 10 10 9 9 9 9 10 10 11 11 11 12 12 13 14 15 16 16 17 17 17 17 17 18 18 18 18 18 19 19 20 19 18 17 15 14 16 19 17 13 16 18 19 21 23 24 25 24 22 20 20 18 15 12 9 8 12 16 17 19 21 19 16 14 13 10 8 7 6 5 4 3 2 2 3 5 5
7 7 8 7 7 7 7 7 8 8 7 8 8 9 10 10 10 12 12 11 10 11 12 14 15 16 16 16 16 17 18 18 19 19 19 20 20 20 21 21 20 19 17 16 19 22 20 16 13 14 16 18 20 23 26 27 25 22 21 19 15 11 8 8 11 14 17 19 20 18 15 14 12 10 8 7 6 5 4 4 4 5 6 5 3
7 6 5 4 3 3 4 6 8 10 10 11 12 14 15 15 15 16 16 15 14 14 13 14 15 16 16 16 16 18 19 20 20 19 19 19 20 22 23 24 23 22 19 18 18 18 19 17 14 11 10 10 10 13 17 22 25 24 22 20 16 11 7 7 9 12 15 19 19 17 16 14 12 11 10 8 7 6 6 7 7 7 7 6 4
4 4 4 3 4 6 8 12 14 15 15 16 16 17 17 17 18 18 18 19 20 20 18 17 17 18 18 19 19 19 20 21 22 22 21 19 19 22 23 24 24 23 21 20 19 17 16 16 16 15 13 11 12 14 14 14 16 18 19 20 19 13 9 8 9 12 15 19 19 17 16 14 13 12 11 9 9 9 10 10 9 7 6 6 5
5 9 12 13 14 14 15 16 17 16 16 16 16 17 17 18 18 18 18 19 21 21 21 21 20 20 21 22 22 22 22 22 23 25 25 22 21 23 23 21 22 23 23 21 18 16 17 18 19 22 23 23 22 22 20 18 19 21 22 24 23 19 13 10 11 13 15 16 16 15 14 14 14 13 11 11 12 13 13 12 11 9 6 5 4
13 16 17 17 18 17 16 15 15 14 15 16 16 16 17 17 17 17 17 17 19 19 20 20 20 21 22 23 23 22 23 23 23 25 26 25 25 26 25 22 22 23 23 23 20 15 15 17 20 22 24 24 24 24 22 22 23 24 25 26 28 26 20 17 15 15 14 12 12 13 14 15 15 14 13 13 14 15 14 13 13 11 8 5 4
Wind_Direction
130 124 125 125 127 132 142 156 156 143 145 147 147 151 152 152 152 151 152 152 149 146 142 138 136 138 140 139 134 130 133 137 135 145 159 158 154 156 160 163 163 166 169 172 176 172 159 161 166 155 150 155 154 153 145 153 165 161 169 191 202 177 144 142 133 117 114 114 103 102 110 114 110 113 108 106 126 144 152 170 180 181 174 178 185
127 123 131 132 133 140 149 163 162 150 153 153 152 154 154 154 154 151 153 155 153 149 143 140 138 140 142 137 132 128 126 127 135 151 157 146 138 142 147 149 150 149 148 150 153 147 135 135 135 123 117 116 121 124 118 125 145 149 148 173 198 190 153 140 135 131 127 126 122 110 109 110 100 100 100 96 107 131 146 162 170 169 159 164 178
128 134 143 139 139 145 153 168 169 157 155 155 155 157 157 157 155 154 157 157 153 148 145 144 143 146 144 137 134 134 130 128 134 144 149 144 140 138 134 135 136 132 128 124 124 124 118 115 111 107 104 97 97 104 112 119 122 123 125 132 171 170 150 145 158 164 140 129 129 119 117 119 84 67 84 84 87 110 122 127 139 153 150 155 171
132 136 140 139 141 150 159 169 170 161 158 158 159 161 160 159 157 158 160 157 152 148 148 147 147 151 149 144 141 139 138 139 138 141 145 146 149 148 140 136 133 130 128 123 120 122 119 114 112 111 109 104 105 93 89 123 131 122 123 118 138 150 144 148 174 171 151 133 118 116 142 135 77 16 71 63 68 92 100 98 101 129 146 162 174
137 136 143 151 153 160 166 169 169 169 167 164 163 163 163 161 159 161 161 158 153 151 150 147 147 146 142 140 138 136 138 142 144 146 146 147 151 151 149 149 145 140 137 133 133 133 128 123 124 128 124 118 127 108 86 102 116 106 107 109 113 147 151 147 157 168 157 134 109 114 120 106 121 159 113 54 56 76 84 91 96 117 139 151 159
139 145 156 165 165 166 169 171 170 172 173 169 166 165 164 162 161 163 162 159 157 153 148 145 145 142 138 137 137 139 143 146 148 147 146 148 147 142 139 143 145 139 130 130 137 137 133 129 130 136 134 124 120 113 97 97 102 95 94 102 105 135 148 140 137 146 141 113 106 110 103 130 149 148 120 49 52 70 82 93 97 111 129 134 137
141 152 161 165 164 165 168 172 170 171 175 175 170 167 167 165 164 163 162 161 159 154 149 148 147 144 144 143 142 144 147 149 149 146 148 150 144 137 131 130 133 132 127 129 136 136 130 128 134 137 135 132 123 109 103 98 99 97 94 98 102 123 139 135 132 133 124 112 115 113 106 130 148 155 145 141 95 63 77 88 95 109 123 129 131
146 157 168 167 161 160 164 171 175 174 175 178 176 171 169 168 166 164 163 162 160 154 151 152 151 149 147 145 144 147 149 149 148 147 149 149 141 134 131 129 127 126 126 133 140 139 118 106 129 140 129 126 125 111 104 104 103 99 98 97 94 101 113 116 120 121 112 109 115 119 112 121 141 151 147 138 123 83 75 80 99 114 120 124 124
149 161 173 169 158 160 164 171 179 178 173 177 180 175 171 170 168 164 162 162 159 154 151 153 153 151 148 147 147 147 144 145 147 147 148 148 144 138 137 133 126 122 124 133 139 140 116 98 114 132 120 110 116 110 104 107 107 101 99 99 93 93 96 97 104 109 108 106 104 108 112 111 121 136 140 132 123 125 127 114 130 127 122 123 121
150 163 173 171 160 161 165 170 176 179 175 177 180 177 172 171 168 164 162 160 159 157 154 153 154 154 153 151 148 143 141 143 145 146 149 151 147 141 138 133 131 131 130 132 134 137 125 103 104 116 109 100 105 106 103 103 103 100 99 101 96 94 96 94 93 92 94 104 108 112 116 115 117 127 133 130 122 118 130 160 165 150 132 128 128
154 160 168 177 163 156 163 168 170 175 178 177 177 176 173 171 169 164 163 161 161 160 157 157 160 160 158 154 148 145 144 145 147 149 152 151 145 141 138 135 134 133 130 127 127 132 130 113 105 108 106 107 109 107 106 102 97 96 98 102 99 94 95 95 88 83 85 96 104 107 112 119 125 132 141 141 135 131 137 155 167 154 138 138 137
154 154 163 179 163 152 163 167 166 171 178 176 173 173 174 173 168 164 166 166 165 163 160 165 167 161 156 154 152 151 151 151 151 153 153 150 146 143 142 139 135 133 132 129 126 129 131 123 115 110 108 112 115 110 107 104 99 96 96 100 101 94 92 91 85 80 82 87 85 82 86 95 115 129 144 153 151 150 149 151 164 154 134 138 142
149 151 156 173 168 159 168 169 166 171 179 176 170 170 173 173 169 167 169 170 170 167 167 171 170 159 154 155 155 155 156 156 155 154 153 153 153 150 147 143 138 135 135 133 131 133 134 130 124 115 107 108 115 114 109 108 106 101 98 101 102 97 93 88 83 80 79 79 77 76 77 81 105 126 140 151 152 153 150 148 159 154 136 143 149
135 145 148 161 171 169 173 173 166 169 179 177 169 167 168 170 171 172 172 173 173 173 174 175 169 159 155 156 158 158 157 157 156 156 156 159 159 153 148 146 142 139 137 136 134 134 134 133 131 126 112 105 115 118 113 110 108 104 100 99 101 102 98 90 83 84 83 80 78 77 77 79 93 116 134 144 148 149 151 158 160 145 141 149 153
80 93 119 160 175 174 171 169 160 162 172 171 162 162 165 170 176 178 175 173 175 178 180 175 165 159 156 158 160 159 157 156 157 160 161 162 159 154 152 149 145 144 142 141 140 135 133 132 132 131 121 110 111 112 108 106 106 104 102 98 99 102 100 92 86 88 88 85 82 80 82 81 85 99 118 140 152 153 155 162 157 139 136 145 142
90 99 146 171 168 167 166 164 154 148 150 154 160 167 175 180 184 183 178 175 178 180 179 171 164 162 159 158 158 157 157 157 158 162 163 161 159 157 156 151 148 149 146 143 143 140 135 131 127 128 126 119 116 114 112 113 112 110 109 105 102 104 102 94 90 92 92 90 87 84 84 85 85 90 95 113 139 146 152 168 173 165 143 123 122
130 147 172 164 142 155 171 167 142 129 132 158 180 183 186 187 187 184 182 183 184 183 178 172 168 166 160 157 156 157 160 159 160 164 164 161 162 161 157 153 152 151 147 143 141 137 133 132 131 130 130 126 122 119 119 121 119 114 112 110 108 110 109 102 97 97 96 92 88 85 83 84 86 84 81 88 99 104 110 129 168 173 156 134 123
139 146 150 125 124 150 173 162 125 127 147 172 185 190 191 189 185 183 186 187 185 186 181 174 170 166 159 156 158 160 161 162 163 164 161 161 164 163 158 157 156 153 148 143 139 138 137 137 136 132 129 126 123 122 121 120 118 115 114 115 115 115 113 109 105 105 104 100 94 90 87 84 82 78 75 77 79 84 92 82 88 149 156 143 132
129 130 132 126 128 136 150 149 122 130 156 173 180 196 198 190 178 176 183 185 186 186 179 172 170 166 163 159 160 164 164 163 163 161 161 163 165 164 162 161 158 156 150 144 141 143 143 139 135 132 130 128 127 127 127 125 122 122 121 118 116 116 113 108 106 106 108 110 106 98 93 88 88 87 78 71 71 76 85 75 72 122 151 144 131
134 134 139 132 125 128 137 139 127 127 153 176 186 203 205 194 183 178 179 178 181 182 174 166 159 159 162 156 151 163 166 163 160 158 158 162 164 163 164 161 158 157 151 146 145 145 142 139 136 136 135 132 129 127 127 127 125 124 124 120 116 115 114 111 108 105 103 111 112 105 99 96 97 97 83 68 66 70 82 84 84 111 136 138 130
137 140 142 138 130 132 134 122 119 133 151 187 200 199 199 198 193 186 183 178 178 177 169 160 153 151 153 142 130 145 155 155 156 155 151 153 159 163 163 160 158 159 153 148 148 145 143 143 140 140 138 134 134 131 128 130 128 125 124 127 128 122 118 118 116 110 106 111 115 108 104 101 97 95 84 69 69 83 94 92 92 113 131 137 135
141 143 144 142 132 131 137 132 123 129 137 150 163 151 161 193 199 194 196 193 186 177 163 152 152 148 141 131 125 134 144 146 147 151 151 150 153 159 162 161 159 159 156 151 150 149 149 148 144 144 141 137 138 135 132 134 131 127 117 111 122 125 119 116 118 118 110 106 110 107 103 101 97 91 82 74 78 93 102 99 99 116 129 132 138
123 135 142 132 131 137 145 143 130 129 141 154 155 148 159 180 183 192 211 208 203 195 173 145 138 135 130 126 121 122 135 144 146 152 162 167 164 162 163 164 162 161 159 155 153 152 152 152 149 146 142 137 137 133 132 136 131 127 118 100 109 124 124 114 119 128 123 111 106 101 96 102 105 92 80 84 86 85 95 103 104 112 115 114 127
92 105 117 110 120 134 133 123 118 122 141 158 162 161 164 167 168 179 196 202 205 207 192 172 162 155 147 135 125 123 130 141 154 160 167 181 180 171 166 166 166 164 161 157 155 156 157 157 155 154 153 150 148 141 131 131 132 134 140 134 127 132 131 117 117 130 135 131 125 114 104 109 116 100 85 96 95 82 89 102 103 103 100 96 104
65 87 100 109 115 122 118 113 109 110 119 130 139 149 157 159 162 167 167 170 180 185 184 184 178 169 164 161 168 164 146 149 166 170 179 195 187 176 173 174 172 168 164 161 161 161 161 160 160 165 167 162 160 153 136 131 143 152 157 159 154 149 148 139 132 143 151 149 140 132 128 130 133 114 95 101 102 90 94 101 100 98 96 95 99
3 65 95 114 124 124 121 115 113 110 108 111 116 126 137 140 144 149 149 154 167 171 171 180 183 180 181 183 191 188 169 167 172 172 184 196 188 179 179 178 175 170 167 168 168 170 171 169 169 175 176 170 165 159 149 148 164 174 175 177 176 175 183 193 197 191 189 182 162 151 149 147 147 137 122 118 110 101 104 106 105 104 102 101 97
341 13 62 75 93 112 117 113 113 112 106 102 99 104 115 117 121 136 145 150 158 160 162 173 185 192 195 190 187 190 184 180 178 172 177 188 188 185 180 175 176 173 172 177 178 177 180 182 182 184 182 179 176 176 175 173 175 182 190 193 192 198 209 217 227 232 226 218 199 185 179 163 160 159 150 152 144 122 116 111 113 119 115 104 89
356 4 28 38 46 57 73 93 104 104 101 104 105 107 113 110 116 134 143 142 143 145 149 157 172 190 196 186 177 184 184 181 180 170 163 171 186 191 185 179 181 181 180 182 179 174 177 183 191 194 186 173 175 187 195 193 186 190 202 208 210 221 229 228 235 242 234 225 213 203 198 183 179 183 171 170 170 150 135 120 118 125 127 115 91
31 23 25 30 40 36 29 55 88 100 101 107 115 117 120 121 127 139 139 136 136 133 134 142 156 180 188 183 180 184 180 180 182 172 158 148 165 184 188 189 190 187 182 179 176 171 173 180 188 193 190 180 178 191 203 206 206 208 212 215 214 225 239 239 241 242 231 220 211 200 194 184 178 177 171 171 171 164 160 149 132 125 116 114 104
47 47 42 37 39 34 29 37 58 99 110 121 127 124 130 136 134 132 122 119 129 133 127 132 150 172 178 176 180 180 178 184 187 178 168 163 165 177 184 187 185 180 176 177 177 175 176 183 186 186 192 196 191 192 203 212 216 216 213 215 225 238 243 237 235 230 213 202 198 186 171 161 161 165 166 164 166 169 172 174 175 196 251 244 201
42 41 40 41 42 37 36 35 29 33 46 70 110 118 135 140 126 117 120 114 116 128 126 121 136 162 175 179 181 173 171 182 189 186 180 180 182 181 180 182 181 178 177 179 183 182 181 187 192 191 197 202 198 192 199 209 215 214 210 212 220 222 214 206 206 201 187 181 178 162 144 136 143 156 162 164 166 172 179 197 226 245 246 238 223
42 37 34 36 39 38 38 34 28 27 24 23 35 51 88 129 132 124 126 128 119 118 122 122 129 142 149 159 170 168 161 169 185 192 189 190 196 200 193 187 186 187 187 187 189 189 188 192 198 202 206 209 211 211 208 211 214 213 215 217 201 182 171 173 177 176 173 172 167 154 137 125 129 136 136 138 138 129 124 137 197 226 227 226 222
42 39 36 33 31 35 36 33 32 30 26 26 31 32 41 80 127 137 128 123 115 112 121 129 136 144 147 150 158 161 159 160 177 188 186 189 201 211 215 205 192 192 193 193 196 197 196 196 197 200 204 207 213 213 205 208 210 198 188 186 175 160 154 156 159 162 168 172 166 155 145 139 142 145 143 139 130 114 107 105 113 161 189 200 224
44 40 38 32 30 34 36 34 33 32 34 37 38 35 38 51 78 114 122 122 119 119 123 120 121 133 140 143 152 159 161 161 169 178 182 187 195 204 211 207 194 193 192 189 192 196 197 197 197 202 210 214 215 206 195 197 193 177 168 166 163 159 160 161 161 166 176 182 172 161 156 154 153 155 155 149 133 115 108 94 81 93 95 81 65
41 37 35 31 31 33 33 33 31 32 38 42 41 41 43 48 56 66 77 90 100 110 120 119 123 138 140 138 146 157 169 176 178 180 184 190 196 201 207 204 197 196 196 194 197 202 208 212 213 215 218 215 205 189 179 177 172 163 157 155 152 154 155 150 147 151 159 166 168 168 167 159 147 143 144 143 133 124 130 122 85 93 93 74 59
49 44 38 36 39 40 37 34 31 32 36 40 41 43 44 45 48 52 55 59 64 67 76 89 101 128 149 158 166 171 173 177 180 182 186 196 202 205 208 205 202 204 203 202 205 207 210 212 212 211 205 193 178 168 165 166 167 166 165 160 155 156 155 148 143 143 142 142 153 167 168 157 149 146 139 139 139 130 137 161 184 187 143 92 70
72 66 58 50 48 45 39 37 34 31 30 32 36 41 44 41 40 43 45 46 46 43 40 44 46 48 60 99 156 173 176 177 178 179 183 188 191 194 194 190 190 196 198 198 198 196 198 201 197 187 178 171 165 163 166 170 174 179 178 172 163 160 161 158 151 148 143 136 143 159 163 153 150 151 142 146 162 159 150 148 173 197 199 166 115
88 82 74 64 56 49 42 39 38 33 27 25 28 34 40 39 34 36 39 40 37 32 29 29 29 32 37 42 50 76 118 154 173 184 189 186 181 184 189 188 186 188 189 190 187 182 184 190 186 175 170 168 167 170 173 178 182 182 181 178 168 159 160 161 160 158 155 149 146 151 157 154 146 142 139 145 173 197 216 241 173 185 190 167 112
106 98 91 82 73 66 58 52 52 46 34 28 27 30 37 38 30 28 32 31 26 23 23 23 21 23 27 30 34 39 42 46 55 81 179 183 179 180 182 183 185 185 183 183 183 181 182 185 180 175 176 177 179 180 181 181 182 183 185 186 181 171 166 165 167 165 157 158 161 159 165 173 162 146 156 159 151 198 201 137 130 170 176 167 128
88 83 88 86 75 68 64 58 57 53 43 37 35 36 40 42 35 28 26 24 18 14 15 15 13 14 17 18 20 22 23 26 27 22 24 54 162 188 187 186 188 191 190 188 187 188 190 191 190 189 188 190 191 189 186 185 186 191 196 194 183 178 175 173 174 173 164 162 168 172 177 186 186 178 167 157 157 172 155 111 110 143 158 162 159
55 50 54 61 57 52 53 54 52 46 39 36 38 36 36 37 36 32 24 18 15 12 12 10 5 3 3 2 2 5 7 9 7 2 4 11 16 29 187 194 200 201 198 198 200 203 202 199 196 196 194 193 194 191 188 190 194 200 204 202 193 188 187 186 183 180 176 173 173 177 181 182 180 174 164 160 168 173 164 137 117 126 141 159 182
49 44 44 50 51 45 45 47 48 44 39 36 34 31 27 26 28 26 17 10 9 9 8 5 2 358 356 353 349 349 352 353 352 350 349 347 349 352 343 293 253 237 225 211 204 212 215 208 200 199 198 194 193 195 194 194 201 208 210 204 197 191 192 194 189 183 183 184 181 180 180 174 170 167 165 177 194 190 188 191 165 59 47 29 286
49 39 36 43 44 40 42 44 43 42 39 36 35 31 28 26 24 19 12 6 5 5 4 4 3 359 355 349 342 339 339 338 336 338 339 336 333 332 329 317 298 277 265 260 244 223 220 209 199 196 197 194 192 196 199 199 204 213 217 211 201 184 183 194 195 190 188 188 184 179 175 170 170 173 177 187 197 198 204 220 265 327 340 343 339
56 42 35 38 38 37 41 40 36 37 37 35 34 34 30 27 21 15 12 10 6 3 2 4 3 360 356 352 344 336 334 333 332 331 331 328 325 322 318 310 302 289 270 262 260 251 221 202 197 196 197 197 197 199 205 208 209 214 220 219 213 199 178 186 195 192 190 190 186 179 172 170 173 177 180 185 191 195 207 225 256 302 316 320 147
63 53 39 34 33 36 39 34 26 26 28 28 29 29 25 21 14 5 4 4 0 359 0 360 358 355 352 350 346 341 337 333 331 330 330 330 327 321 316 309 300 284 265 261 268 268 242 204 197 198 198 200 202 202 206 211 211 214 219 220 218 213 197 183 185 186 188 189 184 175 170 170 173 176 178 180 186 194 204 224 254 279 277 176 156
70 64 43 32 34 35 33 28 19 18 19 19 22 23 16 8 0 355 356 357 356 358 358 355 352 347 343 342 341 340 337 334 331 328 326 326 327 324 321 316 307 290 271 260 265 269 261 229 205 202 204 208 210 208 208 209 208 207 209 211 213 215 209 192 179 176 180 182 177 171 170 171 171 175 180 182 186 194 203 217 227 202 170 163 161
70 60 35 26 34 36 31 22 9 6 10 10 13 18 13 4 359 358 357 354 351 352 353 354 353 348 344 342 339 335 335 335 334 331 327 323 322 322 319 317 315 308 291 269 255 253 255 254 241 220 212 215 217 214 209 205 203 202 202 202 205 211 210 195 179 173 175 177 174 171 172 173 173 176 180 185 191 192 190 182 158 146 154 164 169
50 41 16 8 21 23 20 21 15 16 21 22 22 23 19 13 10 8 7 6 4 358 355 354 351 348 347 346 344 343 344 343 341 340 337 332 329 326 321 314 310 308 304 296 281 262 247 240 231 210 192 194 208 215 214 210 206 204 201 199 202 212 220 205 185 175 174 174 173 173 172 172 176 179 180 183 184 174 166 163 154 147 157 177 197
15 5 352 6 32 33 37 39 34 29 27 24 20 17 12 9 6 3 4 8 8 6 6 4 357 355 357 358 359 357 354 351 351 350 347 343 341 338 331 321 313 309 305 300 291 273 249 235 228 219 214 211 208 205 211 222 224 218 214 211 208 211 226 224 202 189 182 175 172 175 176 175 179 184 185 184 177 167 165 168 166 163 167 179 192
27 37 36 39 42 40 39 37 32 27 23 19 14 8 3 0 359 357 357 1 2 3 6 6 3 3 3 2 1 360 354 350 350 351 350 348 348 348 345 339 334 330 323 313 296 270 250 245 241 235 234 238 236 229 229 242 249 242 234 224 209 202 212 219 202 191 188 181 177 180 185 187 189 191 192 191 184 177 175 177 180 185 193 197 194
49 47 42 38 34 31 31 29 25 20 15 10 6 2 358 355 353 351 352 356 359 0 360 359 359 359 357 357 357 356 353 349 345 345 348 349 347 347 347 347 348 346 338 327 314 286 258 248 245 241 240 243 245 244 246 248 244 235 225 214 202 197 203 214 213 203 193 187 193 203 204 200 200 202 200 197 193 189 188 191 192 195 206 220 216